User: anonymous   Login
Location: Albert
(44.3172°N, 77.1347°W)
Time: 01:15:48
(UTC+00:00)
Language:

Tiangong - Orbit

View from above orbital plane
View from above orbital plane
View from above satellite
View from above satellite

Ground track
Ground track

The orbit data is extracted from the following two-line orbital elements,

1 48274U 21035A   21341.83812875  .00010422  00000-0  11999-3 0  9990
2 48274  41.4705 304.4739 0004080 185.3080 259.2357 15.61928509 34854
Epoch (UTC): 07 December 2021 20:06:54
Eccentricity: 0.0004080
inclination: 41.4705°
perigee height: 379 km
apogee height: 385 km
right ascension of ascending node: 304.4739°
argument of perigee: 185.3080°
revolutions per day: 15.61928509
mean anomaly at epoch: 259.2357°
orbit number at epoch: 3485

The dashed part of the orbit path shows where the satellite is in the earth's shadow,  

DLR